Location: Mt. Cuba Astronomical Observatory
(39.8100°N, 75.6300°W)
Time: 03:19:31
(UTC-05:00)

Daily predictions for brighter satellites

Satellite Brightness Start Highest point End
(mag) Time Altitude Azimuth Time Altitude Azimuth Time Altitude Azimuth
Cosmos 1980 Rocket 3.3 04:14:52 39° SE 04:14:52 39° SE 04:18:24 10° SSE
Timation 2 Rocket 4.3 04:28:20 39° S 04:31:06 73° ESE 04:37:58 10° NNE
Cosmos 1538 Rocket 4.2 04:42:17 68° SE 04:42:33 69° ESE 04:47:48 10° NNE
USA 267 3.3 04:36:43 10° NE 04:42:46 58° NNW 04:42:46 58° NNW
COSMO-SKYMED 1 4.1 04:39:23 10° SE 04:43:17 33° ENE 04:44:39 27° NE
Meteor 2-4 Rocket 3.6 04:47:13 84° NE 04:47:21 86° E 04:52:57 10° S
CZ-2C R/B 4.3 04:46:59 10° SSE 04:50:17 50° SSE 04:50:17 50° SSE
SL-16 R/B 3.0 04:51:39 27° N 04:54:27 48° ENE 04:59:55 10° SE
Okean-O 3.5 04:53:07 10° NNE 04:57:26 49° E 05:01:42 10° S
Okean 1 Rocket 4.0 04:53:37 10° SSE 04:57:47 47° E 05:02:02 10° NNE
Cosmos 2322 Rocket 2.9 04:56:14 26° N 04:59:16 51° ENE 05:04:47 10° SE
Meteor 1-13 Rocket 4.5 05:01:02 54° SW 05:01:02 54° SW 05:06:04 10° S
CZ-4C R/B 2.0 05:01:47 70° NW 05:01:47 70° NW 05:07:39 10° NNE
Cosmos 2360 4.5 05:03:30 49° SW 05:03:30 49° SW 05:08:17 10° S
Meteor 2-20 4.3 04:56:49 10° SSW 05:02:51 66° W 05:08:55 10° N
Meteor 1-11 Rocket 4.0 05:00:07 10° SSW 05:06:57 50° NW 05:11:42 10° N
Meteor 1-4 Rocket 3.5 05:02:54 10° S 05:06:33 49° E 05:10:14 10° NNE
BREEZE-M DEB (TANK) 3.1 05:10:42 68° NNW 05:11:00 74° NNE 05:16:46 10° ESE
SeaSat 1 2.6 05:09:40 10° NNE 05:13:59 51° NW 05:13:59 51° NW
Feng Yun 1-1 Rocket 4.3 05:08:49 10° NNE 05:14:38 83° ESE 05:20:16 10° SSW
PAYLOAD A 4.5 05:09:21 10° NNE 05:14:46 66° ESE 05:20:01 10° S
EO 1 Del DPAF 3.5 05:12:35 10° SSE 05:16:22 65° ENE 05:17:32 41° N
USA 234 3.4 05:10:36 10° ESE 05:17:06 68° NE 05:20:47 28° NW
CZ-2C R/B 3.1 05:17:36 10° NNE 05:22:18 52° E 05:26:49 10° S
Meteor 1-5 Rocket 4.0 05:17:22 10° SSW 05:22:44 60° WNW 05:28:00 10° N
Cosmos 1500 3.1 05:27:00 10° S 05:30:51 86° E 05:34:42 10° N
SKYMED 2 3.4 05:26:55 10° S 05:31:14 70° WSW 05:33:15 31° NNW
Landsat 4 4.2 05:28:51 10° S 05:31:50 41° SW 05:31:50 41° SW
NOAA 6 4.0 05:32:36 10° N 05:37:39 59° WNW 05:42:41 10° SSW
Nadezhda 4 Rocket 4.2 05:35:15 10° SSW 05:41:01 42° WNW 05:46:48 10° N
Cosmos 773 Rocket 4.4 05:43:26 12° SW 05:47:49 36° WNW 05:52:36 10° N
Cosmos 389 Rocket 3.6 05:49:27 10° S 05:52:57 47° E 05:56:25 10° NNE
Cosmos 2285 Rocket 3.9 05:46:44 10° SSW 05:53:03 83° WNW 05:59:24 10° NNE
Cosmos 1455 Rocket 4.4 05:49:04 10° SSE 05:53:14 42° E 05:57:27 10° NNE
Cosmos 2360 Rocket 2.7 05:49:21 10° NNW 05:55:00 61° ENE 06:00:35 10° SE
COSMOS 2441 4.4 05:50:14 10° NNE 05:55:06 86° E 05:59:54 10° SSW
COSMOS 2428 4.5 05:50:52 10° N 05:55:47 28° ENE 06:00:40 10° ESE
Cosmos 1980 Rocket 3.7 05:56:43 16° WSW 05:56:43 16° WSW 05:59:34 10° SW
Cosmos 1066 Rocket 4.1 05:52:38 10° N 05:58:01 88° E 06:03:29 10° S
SMAP 4.5 05:54:46 10° NNE 05:59:12 42° E 06:03:35 10° S
Cosmos 1680 Rocket 3.4 05:56:03 10° SSW 06:01:13 68° WNW 06:06:26 10° NNE
Cosmos 1025 Rocket 3.3 05:59:07 14° NNW 06:02:30 42° W 06:06:32 10° SSW
Cosmos 1666 3.4 05:59:15 10° S 06:03:01 58° E 06:06:46 10° NNE
Cosmos 2219 Rocket 4.3 05:59:08 10° N 06:03:26 22° NE 06:07:44 10° ESE
Okean 1-7 Rocket 3.7 06:00:04 10° NNW 06:04:31 57° W 06:08:59 10° S
CZ-4 R/B 3.3 06:00:49 10° NNE 06:04:40 34° E 06:08:32 10° SSE
BREEZE-M DEB (TANK) 2.8 06:06:51 27° WNW 06:07:40 36° NNW 06:11:25 10° NE
IDEFIX/ARIANE 42P 2.9 06:03:14 10° N 06:08:07 41° WNW 06:12:59 10° SW
S3M 4.2 06:07:03 10° N 06:13:17 75° E 06:19:33 10° SSE
COSMO-SKYMED 1 3.9 06:16:17 10° SW 06:19:30 20° W 06:21:51 14° NW
Cosmos 1371 Rocket 4.2 06:15:03 10° NNW 06:20:17 76° ENE 06:25:27 10° SSE
Aureole 2 Rocket 4.2 06:18:08 10° N 06:20:59 26° ENE 06:23:38 10° SE
Cosmos 1975 3.2 06:19:04 10° SSW 06:22:49 39° WNW 06:26:35 10° N
USA 267 4.4 06:20:10 10° NNE 06:25:15 25° NNW 06:30:08 11° WNW
ATLAS 5 CENTAUR R/B 4.1 06:21:16 10° NNW 06:26:10 26° NE 06:31:27 10° E
SJ-12 4.3 06:23:39 10° N 06:27:28 40° WNW 06:31:16 10° SW
Thor Agena Rocket 3.5 06:22:31 10° S 06:27:30 65° WSW 06:32:34 10° NNW
CSL-04 Debris 4.4 06:23:27 10° NNE 06:28:55 81° ESE 06:34:23 10° SSW
Cosmos 2219 4.3 06:26:38 10° S 06:32:04 50° ESE 06:37:30 10° NNE
Okean-O 4.1 06:30:51 10° NNW 06:33:29 16° WNW 06:36:07 10° W
Cosmos 2026 Rocket 4.5 06:30:14 10° SW 06:36:00 38° WNW 06:41:52 10° N
SJ-7 4.5 06:32:24 10° N 06:36:23 57° WNW 06:40:25 10° SSW
SL-16 R/B 3.4 06:33:52 10° NW 06:38:10 23° W 06:42:28 10° SSW
Cosmos 2266 Rocket 4.2 06:32:42 10° S 06:38:48 78° E 06:44:51 10° N
APEX 4.5 06:38:38 10° WSW 06:41:24 21° NW 06:44:41 10° N
Cosmos 1655 Rocket 4.2 06:35:31 10° SSW 06:41:30 48° WNW 06:47:34 10° N
GPS 2-05 Rocket1 4.3 06:39:05 10° SW 06:42:12 33° S 06:45:16 10° ESE
Cosmos 2322 Rocket 3.5 06:38:42 10° NW 06:42:52 21° W 06:47:02 10° SSW
CSL-04 Rocket 3.7 06:39:38 10° N 06:45:09 66° WNW 06:50:36 10° SSW
IRAS Rocket 4.2 06:41:05 10° NNE 06:46:38 76° WNW 06:52:11 10° SSW
Cosmos 1553 Rocket 4.2 06:40:46 10° NNW 06:46:46 52° W 06:52:40 10° SSW
Aureole 1 Rocket 2.2 06:46:06 10° SSW 06:49:07 84° WNW 06:52:37 10° NNE
CZ-4C R/B 3.9 06:48:14 10° WNW 06:51:35 16° NNW 06:55:11 10° N
